Regional Weather Roundup
Issued by NWS

Home | Current Version | Previous Version | Text Only | Print | Product List | Glossary On
Versions: 1 2 3 4 5 6 7 8 9 10 11 12 13 14 15 16 17 18 19 20 21 22 23 24 25 26 27 28 29 30 31 32 33 34 35 36 37 38 39 40 41 42 43 44 45 46 47 48 49 50
000
ASUS43 KFSD 012010
RWRSD

WEATHER ROUNDUP FOR SOUTH DAKOTA
NATIONAL WEATHER SERVICE SIOUX FALLS SD
300 PM CDT SAT OCT 01 2016

NOTE: "FAIR" INDICATES FEW OR NO CLOUDS BELOW 12,000 FEET WITH NO
SIGNIFICANT WEATHER AND/OR OBSTRUCTIONS TO VISIBILITY.


SDZ001>005-009-010-012>017-012100-
NORTHWEST AND NORTH CENTRAL SOUTH DAKOTA

CITY           SKY/WX    TMP DP  RH WIND       PRES   REMARKS
BUFFALO          N/A     83  50  31 MISG      29.87F
FAITH            N/A     81  50  33 S14G21    29.94F
MOBRIDGE       SUNNY     77  47  34 SE21      29.95F
$$

SDZ012>016-024>037-041>051-057-063-072>074-012100-
SOUTHWEST AND SOUTH CENTRAL SOUTH DAKOTA

CITY           SKY/WX    TMP DP  RH WIND       PRES   REMARKS
RAPID CTY ARPT SUNNY     79  50  36 SE12      29.95F
PIERRE         SUNNY     76  49  38 SE17      29.95F
CUSTER         CLOUDY    73  43  33 SE9G17    30.06F
ELLSWORTH AFB  SUNNY     80  50  35 SE14      29.94F
PHILIP         SUNNY     81  50  33 SE10      29.92F
PINE RIDGE     SUNNY     84  47  27 SW7       29.95F
SPEARFISH      LGT RAIN  79  52  38 E10G17    29.98F
WINNER         FAIR      78  50  37 SE20      29.98F
$$

SDZ004>011-016>023-039-040-012100-
NORTHEAST SOUTH DAKOTA

CITY           SKY/WX    TMP DP  RH WIND       PRES   REMARKS
ABERDEEN       MOSUNNY   74  47  38 S17G23    30.03F
WATERTOWN      MOSUNNY   70  53  54 SE9       30.08F
BROOKINGS      CLOUDY    68  55  63 E8        30.08F
SISSETON         N/A     75  52  44 S13G20    30.06F
$$

SDZ017-020-022-023-036>040-048>070-012100-
SOUTHEAST SOUTH DAKOTA

CITY           SKY/WX    TMP DP  RH WIND       PRES   REMARKS
SIOUX FALLS    CLOUDY    69  54  58 S7        30.08F
HURON          SUNNY     75  48  38 S14G21    30.03F
CHAMBERLAIN    SUNNY     79  49  35 SE17G23   30.00F
MITCHELL       SUNNY     72  47  40 S12       30.05F
YANKTON        MOSUNNY   72  52  49 E8        30.05F
$$

ABBREVIATIONS USED IN REMARKS
   TC - TEMPERATURE IN CELSIUS
  WCI - WIND CHILL INDEX
   HX - HEAT INDEX
  VSB - VISIBILITY





USA.gov is the U.S. government's official web portal to all federal, state and local government web resources and services.